Year,Month,Day,Hour,Minute,Value (Times are PST for temperature in C)
2010,02,23,00,00,3.60
2010,02,23,00,01,3.60
2010,02,23,00,02,3.50
2010,02,23,00,03,3.50
2010,02,23,00,04,3.50
2010,02,23,00,05,3.50
2010,02,23,00,06,3.50
2010,02,23,00,07,3.50
2010,02,23,00,08,3.50
2010,02,23,00,09,3.50
2010,02,23,00,10,3.50
2010,02,23,00,11,3.50
2010,02,23,00,12,3.40
2010,02,23,00,13,3.40
2010,02,23,00,14,3.40
2010,02,23,00,15,3.40
2010,02,23,00,16,3.40
2010,02,23,00,17,3.40
2010,02,23,00,18,3.40
2010,02,23,00,19,3.50
2010,02,23,00,20,3.50
2010,02,23,00,21,3.50
2010,02,23,00,22,3.50
2010,02,23,00,23,3.50
2010,02,23,00,24,3.50
2010,02,23,00,25,3.60
2010,02,23,00,26,3.60
2010,02,23,00,27,3.60
2010,02,23,00,28,3.60
2010,02,23,00,29,3.70
2010,02,23,00,30,3.70
2010,02,23,00,31,3.80
2010,02,23,00,32,3.80
2010,02,23,00,33,3.80
2010,02,23,00,34,3.80
2010,02,23,00,35,3.90
2010,02,23,00,36,3.90
2010,02,23,00,37,4.00
2010,02,23,00,38,4.00
2010,02,23,00,39,4.00
2010,02,23,00,40,4.00
2010,02,23,00,41,4.10
2010,02,23,00,42,4.10
2010,02,23,00,43,4.20
2010,02,23,00,44,4.20
2010,02,23,00,45,4.20
2010,02,23,00,46,4.20
2010,02,23,00,47,4.30
2010,02,23,00,48,4.40
2010,02,23,00,49,4.40
2010,02,23,00,50,4.40
2010,02,23,00,51,4.50
2010,02,23,00,52,4.50
2010,02,23,00,53,4.50
2010,02,23,00,54,4.60
2010,02,23,00,55,4.60
2010,02,23,00,56,4.60
2010,02,23,00,57,4.70
2010,02,23,00,58,4.70
2010,02,23,00,59,4.80
2010,02,23,01,00,4.80
2010,02,23,01,01,4.80
2010,02,23,01,02,4.80
2010,02,23,01,03,4.80
2010,02,23,01,04,4.90
2010,02,23,01,05,4.90
2010,02,23,01,06,4.90
2010,02,23,01,07,4.90
2010,02,23,01,08,4.90
2010,02,23,01,09,4.90
2010,02,23,01,10,4.90
2010,02,23,01,11,4.90
2010,02,23,01,12,4.90
2010,02,23,01,13,4.90
2010,02,23,01,14,4.90
2010,02,23,01,15,4.90
2010,02,23,01,16,5.10
2010,02,23,01,17,5.10
2010,02,23,01,18,5.10
2010,02,23,01,19,5.10
2010,02,23,01,20,5.10
2010,02,23,01,21,5.10
2010,02,23,01,22,5.10
2010,02,23,01,23,5.10
2010,02,23,01,24,5.10
2010,02,23,01,25,5.10
2010,02,23,01,26,5.10
2010,02,23,01,27,5.10
2010,02,23,01,28,5.10
2010,02,23,01,29,4.90
2010,02,23,01,30,4.90
2010,02,23,01,31,4.90
2010,02,23,01,32,4.90
2010,02,23,01,33,4.90
2010,02,23,01,34,4.90
2010,02,23,01,35,4.90
2010,02,23,01,36,4.90
2010,02,23,01,37,4.90
2010,02,23,01,38,4.90
2010,02,23,01,39,4.90
2010,02,23,01,40,4.90
2010,02,23,01,41,4.90
2010,02,23,01,42,4.90
2010,02,23,01,43,4.90
2010,02,23,01,44,4.90
2010,02,23,01,45,4.90
2010,02,23,01,46,4.90
2010,02,23,01,47,4.90
2010,02,23,01,48,4.90
2010,02,23,01,49,4.90
2010,02,23,01,50,4.90
2010,02,23,01,51,4.90
2010,02,23,01,52,4.90
2010,02,23,01,53,4.90
2010,02,23,01,54,4.80
2010,02,23,01,55,4.80
2010,02,23,01,56,4.80
2010,02,23,01,57,4.80
2010,02,23,01,58,4.70
2010,02,23,01,59,4.70
2010,02,23,02,00,4.70
2010,02,23,02,01,4.70
2010,02,23,02,02,4.60
2010,02,23,02,03,4.60
2010,02,23,02,04,4.60
2010,02,23,02,05,4.60
2010,02,23,02,06,4.60
2010,02,23,02,07,4.60
2010,02,23,02,08,4.60
2010,02,23,02,09,4.60
2010,02,23,02,10,4.50
2010,02,23,02,11,4.50
2010,02,23,02,12,4.50
2010,02,23,02,13,4.50
2010,02,23,02,14,4.50
2010,02,23,02,15,4.50
2010,02,23,02,16,4.50
2010,02,23,02,17,4.50
2010,02,23,02,18,4.50
2010,02,23,02,19,4.50
2010,02,23,02,20,4.50
2010,02,23,02,21,4.50
2010,02,23,02,22,4.50
2010,02,23,02,23,4.50
2010,02,23,02,24,4.50
2010,02,23,02,25,4.50
2010,02,23,02,26,4.50
2010,02,23,02,27,4.50
2010,02,23,02,28,4.50
2010,02,23,02,29,4.50
2010,02,23,02,30,4.50
2010,02,23,02,31,4.50
2010,02,23,02,32,4.50
2010,02,23,02,33,4.50
2010,02,23,02,34,4.50
2010,02,23,02,35,4.50
2010,02,23,02,36,4.60
2010,02,23,02,37,4.60
2010,02,23,02,38,4.60
2010,02,23,02,39,4.60
2010,02,23,02,40,4.60
2010,02,23,02,41,4.70
2010,02,23,02,42,4.70
2010,02,23,02,43,4.80
2010,02,23,02,44,4.80
2010,02,23,02,45,4.80
2010,02,23,02,46,4.90
2010,02,23,02,47,4.90
2010,02,23,02,48,4.90
2010,02,23,02,49,4.90
2010,02,23,02,50,5.00
2010,02,23,02,51,5.10
2010,02,23,02,52,5.10
2010,02,23,02,53,5.10
2010,02,23,02,54,5.10
2010,02,23,02,55,5.10
2010,02,23,02,56,5.10
2010,02,23,02,57,5.10
2010,02,23,02,58,5.20
2010,02,23,02,59,5.20
2010,02,23,03,00,5.20
2010,02,23,03,01,5.30
2010,02,23,03,02,5.30
2010,02,23,03,03,5.30
2010,02,23,03,04,5.30
2010,02,23,03,05,5.30
2010,02,23,03,06,5.30
2010,02,23,03,07,5.30
2010,02,23,03,08,5.30
2010,02,23,03,09,5.30
2010,02,23,03,10,5.30
2010,02,23,03,11,5.30
2010,02,23,03,12,5.30
2010,02,23,03,13,5.30
2010,02,23,03,14,5.30
2010,02,23,03,15,5.30
2010,02,23,03,16,5.30
2010,02,23,03,17,5.30
2010,02,23,03,18,5.30
2010,02,23,03,19,5.30
2010,02,23,03,20,5.40
2010,02,23,03,21,5.40
2010,02,23,03,22,5.40
2010,02,23,03,23,5.40
2010,02,23,03,24,5.40
2010,02,23,03,25,5.40
2010,02,23,03,26,5.40
2010,02,23,03,27,5.40
2010,02,23,03,28,5.40
2010,02,23,03,29,5.40
2010,02,23,03,30,5.40
2010,02,23,03,31,5.40
2010,02,23,03,32,5.40
2010,02,23,03,33,5.40
2010,02,23,03,34,5.50
2010,02,23,03,35,5.50
2010,02,23,03,36,5.50
2010,02,23,03,37,5.50
2010,02,23,03,38,5.50
2010,02,23,03,39,5.50
2010,02,23,03,40,5.50
2010,02,23,03,41,5.50
2010,02,23,03,42,5.50
2010,02,23,03,43,5.50
2010,02,23,03,44,5.50
2010,02,23,03,45,5.50
2010,02,23,03,46,5.50
2010,02,23,03,47,5.40
2010,02,23,03,48,5.40
2010,02,23,03,49,5.40
2010,02,23,03,50,5.40
2010,02,23,03,51,5.40
2010,02,23,03,52,5.40
2010,02,23,03,53,5.40
2010,02,23,03,54,5.40
2010,02,23,03,55,5.40
2010,02,23,03,56,5.30
2010,02,23,03,57,5.30
2010,02,23,03,58,5.30
2010,02,23,03,59,5.30
2010,02,23,04,00,5.30
2010,02,23,04,01,5.30
2010,02,23,04,02,5.30
2010,02,23,04,03,5.30
2010,02,23,04,04,5.30
2010,02,23,04,05,5.30
2010,02,23,04,06,5.20
2010,02,23,04,07,5.20
2010,02,23,04,08,5.20
2010,02,23,04,09,5.20
2010,02,23,04,10,5.20
2010,02,23,04,11,5.20
2010,02,23,04,12,5.20
2010,02,23,04,13,5.20
2010,02,23,04,14,5.20
2010,02,23,04,15,5.20
2010,02,23,04,16,5.20
2010,02,23,04,17,5.20
2010,02,23,04,18,5.20
2010,02,23,04,19,5.20
2010,02,23,04,20,5.20
2010,02,23,04,21,5.20
2010,02,23,04,22,5.20
2010,02,23,04,23,5.20
2010,02,23,04,24,5.20
2010,02,23,04,25,5.20
2010,02,23,04,26,5.20
2010,02,23,04,27,5.20
2010,02,23,04,28,5.20
2010,02,23,04,29,5.20
2010,02,23,04,30,5.20
2010,02,23,04,31,5.20
2010,02,23,04,32,5.20
2010,02,23,04,33,5.20
2010,02,23,04,34,5.30
2010,02,23,04,35,5.30
2010,02,23,04,36,5.30
2010,02,23,04,37,5.30
2010,02,23,04,38,5.30
2010,02,23,04,39,5.30
2010,02,23,04,40,5.30
2010,02,23,04,41,5.30
2010,02,23,04,42,5.30
2010,02,23,04,43,5.30
2010,02,23,04,44,5.30
2010,02,23,04,45,5.30
2010,02,23,04,46,5.30
2010,02,23,04,47,5.30
2010,02,23,04,48,5.40
2010,02,23,04,49,5.40
2010,02,23,04,50,5.40
2010,02,23,04,51,5.40
2010,02,23,04,52,5.40
2010,02,23,04,53,5.40
2010,02,23,04,54,5.40
2010,02,23,04,55,5.50
2010,02,23,04,56,5.50
2010,02,23,04,57,5.50
2010,02,23,04,58,5.50
2010,02,23,04,59,5.50
2010,02,23,05,00,5.50
2010,02,23,05,01,5.50
2010,02,23,05,02,5.50
2010,02,23,05,03,5.50
2010,02,23,05,04,5.50
2010,02,23,05,05,5.50
2010,02,23,05,06,5.50
2010,02,23,05,07,5.50
2010,02,23,05,08,5.50
2010,02,23,05,09,5.50
2010,02,23,05,10,5.50
2010,02,23,05,11,5.50
2010,02,23,05,12,5.50
2010,02,23,05,13,5.50
2010,02,23,05,14,5.50
2010,02,23,05,15,5.50
2010,02,23,05,16,5.50
2010,02,23,05,17,5.50
2010,02,23,05,18,5.50
2010,02,23,05,19,5.50
2010,02,23,05,20,5.50
2010,02,23,05,21,5.50
2010,02,23,05,22,5.50
2010,02,23,05,23,5.50
2010,02,23,05,24,5.50
2010,02,23,05,25,5.50
2010,02,23,05,26,5.50
2010,02,23,05,27,5.50
2010,02,23,05,28,5.60
2010,02,23,05,29,5.60
2010,02,23,05,30,5.60
2010,02,23,05,31,5.60
2010,02,23,05,32,5.60
2010,02,23,05,33,5.60
2010,02,23,05,34,5.60
2010,02,23,05,35,5.60
2010,02,23,05,36,5.60
2010,02,23,05,37,5.60
2010,02,23,05,38,5.60
2010,02,23,05,39,5.60
2010,02,23,05,40,5.60
2010,02,23,05,41,5.60
2010,02,23,05,42,5.60
2010,02,23,05,43,5.70
2010,02,23,05,44,5.70
2010,02,23,05,45,5.70
2010,02,23,05,46,5.70
2010,02,23,05,47,5.70
2010,02,23,05,48,5.70
2010,02,23,05,49,5.70
2010,02,23,05,50,5.70
2010,02,23,05,51,5.70
2010,02,23,05,52,5.70
2010,02,23,05,53,5.70
2010,02,23,05,54,5.70
2010,02,23,05,55,5.70
2010,02,23,05,56,5.70
2010,02,23,05,57,5.70
2010,02,23,05,58,5.70
2010,02,23,05,59,5.70
2010,02,23,06,00,5.70
2010,02,23,06,01,5.70
2010,02,23,06,02,5.70
2010,02,23,06,03,5.70
2010,02,23,06,04,5.70
2010,02,23,06,05,5.70
2010,02,23,06,06,5.70
2010,02,23,06,07,5.70
2010,02,23,06,08,5.70
2010,02,23,06,09,5.70
2010,02,23,06,10,5.70
2010,02,23,06,11,5.70
2010,02,23,06,12,5.70
2010,02,23,06,13,5.60
2010,02,23,06,14,5.60
2010,02,23,06,15,5.60
2010,02,23,06,16,5.60
2010,02,23,06,17,5.60
2010,02,23,06,18,5.60
2010,02,23,06,19,5.60
2010,02,23,06,20,5.60
2010,02,23,06,21,5.60
2010,02,23,06,22,5.50
2010,02,23,06,23,5.50
2010,02,23,06,24,5.50
2010,02,23,06,25,5.50
2010,02,23,06,26,5.50
2010,02,23,06,27,5.50
2010,02,23,06,28,5.50
2010,02,23,06,29,5.40
2010,02,23,06,30,5.40
2010,02,23,06,31,5.40
2010,02,23,06,32,5.40
2010,02,23,06,33,5.40
2010,02,23,06,34,5.40
2010,02,23,06,35,5.40
2010,02,23,06,36,5.40
2010,02,23,06,37,5.40
2010,02,23,06,38,5.40
2010,02,23,06,39,5.40
2010,02,23,06,40,5.40
2010,02,23,06,41,5.40
2010,02,23,06,42,5.40
2010,02,23,06,43,5.40
2010,02,23,06,44,5.40
2010,02,23,06,45,5.40
2010,02,23,06,46,5.40
2010,02,23,06,47,5.40
2010,02,23,06,48,5.40
2010,02,23,06,49,5.40
2010,02,23,06,50,5.40
2010,02,23,06,51,5.40
2010,02,23,06,52,5.40
2010,02,23,06,53,5.40
2010,02,23,06,54,5.40
2010,02,23,06,55,5.40
2010,02,23,06,56,5.40
2010,02,23,06,57,5.40
2010,02,23,06,58,5.40
2010,02,23,06,59,5.40
2010,02,23,07,00,5.40
2010,02,23,07,01,5.50
2010,02,23,07,02,5.50
2010,02,23,07,03,5.50
2010,02,23,07,04,5.50
2010,02,23,07,05,5.50
2010,02,23,07,06,5.50
2010,02,23,07,07,5.50
2010,02,23,07,08,5.50
2010,02,23,07,09,5.50
2010,02,23,07,10,5.50
2010,02,23,07,11,5.50
2010,02,23,07,12,5.60
2010,02,23,07,13,5.60
2010,02,23,07,14,5.60
2010,02,23,07,15,5.60
2010,02,23,07,16,5.60
2010,02,23,07,17,5.60
2010,02,23,07,18,5.60
2010,02,23,07,19,5.60
2010,02,23,07,20,5.60
2010,02,23,07,21,5.60
2010,02,23,07,22,5.60
2010,02,23,07,23,5.60
2010,02,23,07,24,5.60
2010,02,23,07,25,5.60
2010,02,23,07,26,5.60
2010,02,23,07,27,5.70
2010,02,23,07,28,5.70
2010,02,23,07,29,5.70
2010,02,23,07,30,5.70
2010,02,23,07,31,5.70
2010,02,23,07,32,5.70
2010,02,23,07,33,5.70
2010,02,23,07,34,5.70
2010,02,23,07,35,5.70
2010,02,23,07,36,5.70
2010,02,23,07,37,5.70
2010,02,23,07,38,5.70
2010,02,23,07,39,5.70
2010,02,23,07,40,5.70
2010,02,23,07,41,5.70
2010,02,23,07,42,5.70
2010,02,23,07,43,5.70
2010,02,23,07,44,5.70
2010,02,23,07,45,5.70
2010,02,23,07,46,5.70
2010,02,23,07,47,5.70
2010,02,23,07,48,5.70
2010,02,23,07,49,5.70
2010,02,23,07,50,5.70
2010,02,23,07,51,5.70
2010,02,23,07,52,5.70
2010,02,23,07,53,5.70
2010,02,23,07,54,5.70
2010,02,23,07,55,5.70
2010,02,23,07,56,5.70
2010,02,23,07,57,5.70
2010,02,23,07,58,5.70
2010,02,23,07,59,5.80
2010,02,23,08,00,5.80
2010,02,23,08,01,5.80
2010,02,23,08,02,5.80
2010,02,23,08,03,5.80
2010,02,23,08,04,5.80
2010,02,23,08,05,5.80
2010,02,23,08,06,5.80
2010,02,23,08,07,5.80
2010,02,23,08,08,5.80
2010,02,23,08,09,5.80
2010,02,23,08,10,5.80
2010,02,23,08,11,5.80
2010,02,23,08,12,5.80
2010,02,23,08,13,5.80
2010,02,23,08,14,5.80
2010,02,23,08,15,5.80
2010,02,23,08,16,5.80
2010,02,23,08,17,5.80
2010,02,23,08,18,5.80
2010,02,23,08,19,5.80
2010,02,23,08,20,5.80
2010,02,23,08,21,5.90
2010,02,23,08,22,5.90
2010,02,23,08,23,5.90
2010,02,23,08,24,5.90
2010,02,23,08,25,5.90
2010,02,23,08,26,5.90
2010,02,23,08,27,5.90
2010,02,23,08,28,5.90
2010,02,23,08,29,5.90
2010,02,23,08,30,5.90
2010,02,23,08,31,5.90
2010,02,23,08,32,5.90
2010,02,23,08,33,5.90
2010,02,23,08,34,6.00
2010,02,23,08,35,6.00
2010,02,23,08,36,6.00
2010,02,23,08,37,6.00
2010,02,23,08,38,6.00
2010,02,23,08,39,6.00
2010,02,23,08,40,6.00
2010,02,23,08,41,6.10
2010,02,23,08,42,6.10
2010,02,23,08,43,6.10
2010,02,23,08,44,6.10
2010,02,23,08,45,6.10
2010,02,23,08,46,6.10
2010,02,23,08,47,6.10
2010,02,23,08,48,6.10
2010,02,23,08,49,6.10
2010,02,23,08,50,6.10
2010,02,23,08,51,6.10
2010,02,23,08,52,6.10
2010,02,23,08,53,6.10
2010,02,23,08,54,6.10
2010,02,23,08,55,6.10
2010,02,23,08,56,6.10
2010,02,23,08,57,6.10
2010,02,23,08,58,6.10
2010,02,23,08,59,6.10
2010,02,23,09,00,6.10
2010,02,23,09,01,6.10
2010,02,23,09,02,6.10
2010,02,23,09,03,6.10
2010,02,23,09,04,6.10
2010,02,23,09,05,6.10
2010,02,23,09,06,6.10
2010,02,23,09,07,6.10
2010,02,23,09,08,6.10
2010,02,23,09,09,6.10
2010,02,23,09,10,6.10
2010,02,23,09,11,6.10
2010,02,23,09,12,6.20
2010,02,23,09,13,6.20
2010,02,23,09,14,6.20
2010,02,23,09,15,6.20
2010,02,23,09,16,6.20
2010,02,23,09,17,6.20
2010,02,23,09,18,6.20
2010,02,23,09,19,6.20
2010,02,23,09,20,6.20
2010,02,23,09,21,6.20
2010,02,23,09,22,6.20
2010,02,23,09,23,6.20
2010,02,23,09,24,6.20
2010,02,23,09,25,6.20
2010,02,23,09,26,6.20
2010,02,23,09,27,6.20
2010,02,23,09,28,6.20
2010,02,23,09,29,6.20
2010,02,23,09,30,6.20
2010,02,23,09,31,6.20
2010,02,23,09,32,6.20
2010,02,23,09,33,6.20
2010,02,23,09,34,6.20
2010,02,23,09,35,6.20
2010,02,23,09,36,6.20
2010,02,23,09,37,6.20
2010,02,23,09,38,6.20
2010,02,23,09,39,6.20
2010,02,23,09,40,6.20
2010,02,23,09,41,6.20
2010,02,23,09,42,6.20
2010,02,23,09,43,6.20
2010,02,23,09,44,6.20
2010,02,23,09,45,6.20
2010,02,23,09,46,6.30
2010,02,23,09,47,6.30
2010,02,23,09,48,6.30
2010,02,23,09,49,6.30
2010,02,23,09,50,6.30
2010,02,23,09,51,6.30
2010,02,23,09,52,6.30
2010,02,23,09,53,6.40
2010,02,23,09,54,6.40
2010,02,23,09,55,6.40
2010,02,23,09,56,6.40
2010,02,23,09,57,6.40
2010,02,23,09,58,6.40
2010,02,23,09,59,6.40
2010,02,23,10,00,6.40
2010,02,23,10,01,6.40
2010,02,23,10,02,6.40
2010,02,23,10,03,6.50
2010,02,23,10,04,6.60
2010,02,23,10,05,6.60
2010,02,23,10,06,6.60
2010,02,23,10,07,6.60
2010,02,23,10,08,6.60
2010,02,23,10,09,6.60
2010,02,23,10,10,6.60
2010,02,23,10,11,6.60
2010,02,23,10,12,6.60
2010,02,23,10,13,6.60
2010,02,23,10,14,6.60
2010,02,23,10,15,6.60
2010,02,23,10,16,6.70
2010,02,23,10,17,6.70
2010,02,23,10,18,6.70
2010,02,23,10,19,6.70
2010,02,23,10,20,6.70
2010,02,23,10,21,6.80
2010,02,23,10,22,6.80
2010,02,23,10,23,6.80
2010,02,23,10,24,6.80
2010,02,23,10,25,6.90
2010,02,23,10,26,6.90
2010,02,23,10,27,6.90
2010,02,23,10,28,7.00
2010,02,23,10,29,7.00
2010,02,23,10,30,7.00
2010,02,23,10,31,7.10
2010,02,23,10,32,7.10
2010,02,23,10,33,7.20
2010,02,23,10,34,7.20
2010,02,23,10,35,7.20
2010,02,23,10,36,7.20
2010,02,23,10,37,7.20
2010,02,23,10,38,7.30
2010,02,23,10,39,7.30
2010,02,23,10,40,7.30
2010,02,23,10,41,7.30
2010,02,23,10,42,7.30
2010,02,23,10,43,7.30
2010,02,23,10,44,7.40
2010,02,23,10,45,7.40
2010,02,23,10,46,7.40
2010,02,23,10,47,7.40
2010,02,23,10,48,7.40
2010,02,23,10,49,7.40
2010,02,23,10,50,7.40
2010,02,23,10,51,7.40
2010,02,23,10,52,7.40
2010,02,23,10,53,7.40
2010,02,23,10,54,7.40
2010,02,23,10,55,7.40
2010,02,23,10,56,7.40
2010,02,23,10,57,7.40
2010,02,23,10,58,7.40
2010,02,23,10,59,7.30
2010,02,23,11,00,7.30
2010,02,23,11,01,7.30
2010,02,23,11,02,7.30
2010,02,23,11,03,7.30
2010,02,23,11,04,7.30
2010,02,23,11,05,7.30
2010,02,23,11,06,7.30
2010,02,23,11,07,7.30
2010,02,23,11,08,7.30
2010,02,23,11,09,7.30
2010,02,23,11,10,7.30
2010,02,23,11,11,7.30
2010,02,23,11,12,7.30
2010,02,23,11,13,7.30
2010,02,23,11,14,7.30
2010,02,23,11,15,7.30
2010,02,23,11,16,7.30
2010,02,23,11,17,7.30
2010,02,23,11,18,7.30
2010,02,23,11,19,7.30
2010,02,23,11,20,7.30
2010,02,23,11,21,7.30
2010,02,23,11,22,7.30
2010,02,23,11,23,7.30
2010,02,23,11,24,7.30
2010,02,23,11,25,7.30
2010,02,23,11,26,7.30
2010,02,23,11,27,7.30
2010,02,23,11,28,7.30
2010,02,23,11,29,7.30
2010,02,23,11,30,7.30
2010,02,23,11,31,7.30
2010,02,23,11,32,7.30
2010,02,23,11,33,7.30
2010,02,23,11,34,7.30
2010,02,23,11,35,7.30
2010,02,23,11,36,7.30
2010,02,23,11,37,7.30
2010,02,23,11,38,7.30
2010,02,23,11,39,7.30
2010,02,23,11,40,7.30
2010,02,23,11,41,7.30
2010,02,23,11,42,7.30
2010,02,23,11,43,7.30
2010,02,23,11,44,7.30
2010,02,23,11,45,7.30
2010,02,23,11,46,7.30
2010,02,23,11,47,7.30
2010,02,23,11,48,7.30
2010,02,23,11,49,7.40
2010,02,23,11,50,7.40
2010,02,23,11,51,7.40
2010,02,23,11,52,7.40
2010,02,23,11,53,7.50
2010,02,23,11,54,7.50
2010,02,23,11,55,7.50
2010,02,23,11,56,7.50
2010,02,23,11,57,7.50
2010,02,23,11,58,7.50
2010,02,23,11,59,7.60
2010,02,23,12,00,7.60
2010,02,23,12,01,7.60
2010,02,23,12,02,7.60
2010,02,23,12,03,7.60
2010,02,23,12,04,7.60
2010,02,23,12,05,7.60
2010,02,23,12,06,7.70
2010,02,23,12,07,7.70
2010,02,23,12,08,7.70
2010,02,23,12,09,7.70
2010,02,23,12,10,7.70
2010,02,23,12,11,7.70
2010,02,23,12,12,7.70
2010,02,23,12,13,7.70
2010,02,23,12,14,7.80
2010,02,23,12,15,7.80
2010,02,23,12,16,7.80
2010,02,23,12,17,7.80
2010,02,23,12,18,7.80
2010,02,23,12,19,7.80
2010,02,23,12,20,7.80
2010,02,23,12,21,7.80
2010,02,23,12,22,7.90
2010,02,23,12,23,7.90
2010,02,23,12,24,7.90
2010,02,23,12,25,7.90
2010,02,23,12,26,8.00
2010,02,23,12,27,8.00
2010,02,23,12,28,8.00
2010,02,23,12,29,8.00
2010,02,23,12,30,8.00
2010,02,23,12,31,8.00
2010,02,23,12,32,8.00
2010,02,23,12,33,8.00
2010,02,23,12,34,8.00
2010,02,23,12,35,8.10
2010,02,23,12,36,8.10
2010,02,23,12,37,8.10
2010,02,23,12,38,8.10
2010,02,23,12,39,8.10
2010,02,23,12,40,8.10
2010,02,23,12,41,8.10
2010,02,23,12,42,8.10
2010,02,23,12,43,8.10
2010,02,23,12,44,8.10
2010,02,23,12,45,8.10
2010,02,23,12,46,8.10
2010,02,23,12,47,8.10
2010,02,23,12,48,8.10
2010,02,23,12,49,8.10
2010,02,23,12,50,8.10
2010,02,23,12,51,8.10
2010,02,23,12,52,8.10
2010,02,23,12,53,8.10
2010,02,23,12,54,8.10
2010,02,23,12,55,8.20
2010,02,23,12,56,8.10
2010,02,23,12,57,8.10
2010,02,23,12,58,8.10
2010,02,23,12,59,8.10
2010,02,23,13,00,8.10
2010,02,23,13,01,8.10
2010,02,23,13,02,8.10
2010,02,23,13,03,8.10
2010,02,23,13,04,8.10
2010,02,23,13,05,8.10
2010,02,23,13,06,8.10
2010,02,23,13,07,8.10
2010,02,23,13,08,8.10
2010,02,23,13,09,8.10
2010,02,23,13,10,8.10
2010,02,23,13,11,8.10
2010,02,23,13,12,8.10
2010,02,23,13,13,8.10
2010,02,23,13,14,8.10
2010,02,23,13,15,8.10
2010,02,23,13,16,8.10
2010,02,23,13,17,8.10
2010,02,23,13,18,8.10
2010,02,23,13,19,8.10
2010,02,23,13,20,8.10
2010,02,23,13,21,8.10
2010,02,23,13,22,8.10
2010,02,23,13,23,8.10
2010,02,23,13,24,8.10
2010,02,23,13,25,8.10
2010,02,23,13,26,8.10
2010,02,23,13,27,8.20
2010,02,23,13,28,8.20
2010,02,23,13,29,8.20
2010,02,23,13,30,8.20
2010,02,23,13,31,8.20
2010,02,23,13,32,8.20
2010,02,23,13,33,8.20
2010,02,23,13,34,8.20
2010,02,23,13,35,8.20
2010,02,23,13,36,8.20
2010,02,23,13,37,8.30
2010,02,23,13,38,8.20
2010,02,23,13,39,8.20
2010,02,23,13,40,8.20
2010,02,23,13,41,8.20
2010,02,23,13,42,8.20
2010,02,23,13,43,8.20
2010,02,23,13,44,8.20
2010,02,23,13,45,8.20
2010,02,23,13,46,8.20
2010,02,23,13,47,8.20
2010,02,23,13,48,8.20
2010,02,23,13,49,8.20
2010,02,23,13,50,8.20
2010,02,23,13,51,8.20
2010,02,23,13,52,8.10
2010,02,23,13,53,8.10
2010,02,23,13,54,8.10
2010,02,23,13,55,8.10
2010,02,23,13,56,8.10
2010,02,23,13,57,8.10
2010,02,23,13,58,8.10
2010,02,23,13,59,8.10
2010,02,23,14,00,8.10
2010,02,23,14,01,8.10
2010,02,23,14,02,8.10
2010,02,23,14,03,8.10
2010,02,23,14,04,8.00
2010,02,23,14,05,8.00
2010,02,23,14,06,8.00
2010,02,23,14,07,8.00
2010,02,23,14,08,8.00
2010,02,23,14,09,7.90
2010,02,23,14,10,7.90
2010,02,23,14,11,7.90
2010,02,23,14,12,7.90
2010,02,23,14,13,7.90
2010,02,23,14,14,7.90
2010,02,23,14,15,7.90
2010,02,23,14,16,7.80
2010,02,23,14,17,7.80
2010,02,23,14,18,7.80
2010,02,23,14,19,7.80
2010,02,23,14,20,7.80
2010,02,23,14,21,7.80
2010,02,23,14,22,7.80
2010,02,23,14,23,7.70
2010,02,23,14,24,7.70
2010,02,23,14,25,7.70
2010,02,23,14,26,7.60
2010,02,23,14,27,7.60
2010,02,23,14,28,7.60
2010,02,23,14,29,7.60
2010,02,23,14,30,7.60
2010,02,23,14,31,7.60
2010,02,23,14,32,7.60
2010,02,23,14,33,7.50
2010,02,23,14,34,7.50
2010,02,23,14,35,7.50
2010,02,23,14,36,7.50
2010,02,23,14,37,7.50
2010,02,23,14,38,7.50
2010,02,23,14,39,7.50
2010,02,23,14,40,7.50
2010,02,23,14,41,7.40
2010,02,23,14,42,7.40
2010,02,23,14,43,7.40
2010,02,23,14,44,7.40
2010,02,23,14,45,7.40
2010,02,23,14,46,7.40
2010,02,23,14,47,7.40
2010,02,23,14,48,7.40
2010,02,23,14,49,7.40
2010,02,23,14,50,7.40
2010,02,23,14,51,7.40
2010,02,23,14,52,7.40
2010,02,23,14,53,7.40
2010,02,23,14,54,7.40
2010,02,23,14,55,7.40
2010,02,23,14,56,7.40
2010,02,23,14,57,7.40
2010,02,23,14,58,7.40
2010,02,23,14,59,7.40
2010,02,23,15,00,7.40
2010,02,23,15,01,7.40
2010,02,23,15,02,7.40
2010,02,23,15,03,7.40
2010,02,23,15,04,7.40
2010,02,23,15,05,7.40
2010,02,23,15,06,7.40
2010,02,23,15,07,7.40
2010,02,23,15,08,7.40
2010,02,23,15,09,7.40
2010,02,23,15,10,7.40
2010,02,23,15,11,7.40
2010,02,23,15,12,7.40
2010,02,23,15,13,7.40
2010,02,23,15,14,7.50
2010,02,23,15,15,7.50
2010,02,23,15,16,7.50
2010,02,23,15,17,7.50
2010,02,23,15,18,7.50
2010,02,23,15,19,7.50
2010,02,23,15,20,7.50
2010,02,23,15,21,7.50
2010,02,23,15,22,7.50
2010,02,23,15,23,7.50
2010,02,23,15,24,7.50
2010,02,23,15,25,7.50
2010,02,23,15,26,7.50
2010,02,23,15,27,7.60
2010,02,23,15,28,7.60
2010,02,23,15,29,7.60
2010,02,23,15,30,7.60
2010,02,23,15,31,7.60
2010,02,23,15,32,7.60
2010,02,23,15,33,7.60
2010,02,23,15,34,7.60
2010,02,23,15,35,7.60
2010,02,23,15,36,7.60
2010,02,23,15,37,7.60
2010,02,23,15,38,7.60
2010,02,23,15,39,7.60
2010,02,23,15,40,7.50
2010,02,23,15,41,7.50
2010,02,23,15,42,7.50
2010,02,23,15,43,7.50
2010,02,23,15,44,7.50
2010,02,23,15,45,7.50
2010,02,23,15,46,7.50
2010,02,23,15,47,7.40
2010,02,23,15,48,7.40
2010,02,23,15,49,7.40
2010,02,23,15,50,7.40
2010,02,23,15,51,7.40
2010,02,23,15,52,7.40
2010,02,23,15,53,7.30
2010,02,23,15,54,7.30
2010,02,23,15,55,7.30
2010,02,23,15,56,7.30
2010,02,23,15,57,7.30
2010,02,23,15,58,7.30
2010,02,23,15,59,7.30
2010,02,23,16,00,7.30
2010,02,23,16,01,7.30
2010,02,23,16,02,7.30
2010,02,23,16,03,7.30
2010,02,23,16,04,7.30
2010,02,23,16,05,7.30
2010,02,23,16,06,7.30
2010,02,23,16,07,7.30
2010,02,23,16,08,7.30
2010,02,23,16,09,7.30
2010,02,23,16,10,7.30
2010,02,23,16,11,7.30
2010,02,23,16,12,7.20
2010,02,23,16,13,7.20
2010,02,23,16,14,7.30
2010,02,23,16,15,7.30
2010,02,23,16,16,7.30
2010,02,23,16,17,7.30
2010,02,23,16,18,7.30
2010,02,23,16,19,7.30
2010,02,23,16,20,7.20
2010,02,23,16,21,7.20
2010,02,23,16,22,7.20
2010,02,23,16,23,7.20
2010,02,23,16,24,7.20
2010,02,23,16,25,7.20
2010,02,23,16,26,7.20
2010,02,23,16,27,7.20
2010,02,23,16,28,7.20
2010,02,23,16,29,7.20
2010,02,23,16,30,7.10
2010,02,23,16,31,7.10
2010,02,23,16,32,7.10
2010,02,23,16,33,7.00
2010,02,23,16,34,7.00
2010,02,23,16,35,7.00
2010,02,23,16,36,6.90
2010,02,23,16,37,6.90
2010,02,23,16,38,6.90
2010,02,23,16,39,6.90
2010,02,23,16,40,6.90
2010,02,23,16,41,6.80
2010,02,23,16,42,6.80
2010,02,23,16,43,6.80
2010,02,23,16,44,6.80
2010,02,23,16,45,6.80
2010,02,23,16,46,6.80
2010,02,23,16,47,6.80
2010,02,23,16,48,6.80
2010,02,23,16,49,6.70
2010,02,23,16,50,6.70
2010,02,23,16,51,6.70
2010,02,23,16,52,6.70
2010,02,23,16,53,6.70
2010,02,23,16,54,6.60
2010,02,23,16,55,6.60
2010,02,23,16,56,6.60
2010,02,23,16,57,6.60
2010,02,23,16,58,6.60
2010,02,23,16,59,6.50
2010,02,23,17,00,6.40
2010,02,23,17,01,6.40
2010,02,23,17,02,6.40
2010,02,23,17,03,6.40
2010,02,23,17,04,6.40
2010,02,23,17,05,6.40
2010,02,23,17,06,6.40
2010,02,23,17,07,6.40
2010,02,23,17,08,6.40
2010,02,23,17,09,6.40
2010,02,23,17,10,6.40
2010,02,23,17,11,6.40
2010,02,23,17,12,6.40
2010,02,23,17,13,6.40
2010,02,23,17,14,6.40
2010,02,23,17,15,6.40
2010,02,23,17,16,6.40
2010,02,23,17,17,6.40
2010,02,23,17,18,6.40
2010,02,23,17,19,6.40
2010,02,23,17,20,6.40
2010,02,23,17,21,6.40
2010,02,23,17,22,6.40
2010,02,23,17,23,6.40
2010,02,23,17,24,6.40
2010,02,23,17,25,6.40
2010,02,23,17,26,6.40
2010,02,23,17,27,6.40
2010,02,23,17,28,6.40
2010,02,23,17,29,6.40
2010,02,23,17,30,6.40
2010,02,23,17,31,6.40
2010,02,23,17,32,6.40
2010,02,23,17,33,6.40
2010,02,23,17,34,6.40
2010,02,23,17,35,6.40
2010,02,23,17,36,6.40
2010,02,23,17,37,6.40
2010,02,23,17,38,6.40
2010,02,23,17,39,6.40
2010,02,23,17,40,6.40
2010,02,23,17,41,6.40
2010,02,23,17,42,6.40
2010,02,23,17,43,6.40
2010,02,23,17,44,6.40
2010,02,23,17,45,6.40
2010,02,23,17,46,6.40
2010,02,23,17,47,6.40
2010,02,23,17,48,6.40
2010,02,23,17,49,6.40
2010,02,23,17,50,6.40
2010,02,23,17,51,6.40
2010,02,23,17,52,6.50
2010,02,23,17,53,6.50
2010,02,23,17,54,6.50
2010,02,23,17,55,6.60
2010,02,23,17,56,6.60
2010,02,23,17,57,6.60
2010,02,23,17,58,6.60
2010,02,23,17,59,6.60
2010,02,23,18,00,6.60
2010,02,23,18,01,6.60
2010,02,23,18,02,6.60
2010,02,23,18,03,6.60
2010,02,23,18,04,6.60
2010,02,23,18,05,6.50
2010,02,23,18,06,6.40